Location: Bratsk-Energetik
(56.3300°N, 101.7600°E)
Time: 13:20:18
(UTC+08:00)

ISS - Pass Details

Date: 25 May 2017
Orbit: 401 x 408 km, 51.6° (Epoch: 27 June)

Event Time Altitude Azimuth Distance (km) Brightness Sun altitude
Rises 02:24:52 0° 267° (W) 2,338 -0.2 -11.2°
Reaches altitude 10° 02:27:06 10° 256° (WSW) 1,474 -1.3 -11.1°
Maximum altitude 02:30:02 30° 194° (SSW) 764 -3.0 -10.9°
Drops below altitude 10° 02:32:58 10° 131° (SE) 1,466 -1.2 -10.8°
Sets 02:35:11 0° 120° (ESE) 2,323 -0.1 -10.7°
